{"data":{"norad_id":67452,"epoch":"2026-09-19T05:02:23.748576Z","epoch_age_seconds":183678,"freshness":"STALE","line1":"1 67452U 26008H   26262.20999709  .00006066  00000+0  22977-3 0  9990","line2":"2 67452  43.0021 192.7618 0001377 274.3989  85.6705 15.27580280 39168","mean_motion":15.2758028,"eccentricity":0.0001377,"inclination_deg":43.0021,"raan_deg":192.7618,"arg_perigee_deg":274.3989,"mean_anomaly_deg":85.6705,"bstar":0.00022977,"rev_number":3916,"period_min":94.266731434894,"perigee_km":482.10347240908,"apogee_km":483.99304282903,"semimajor_km":6861.1852576191,"source":"CELESTRAK","updated_at":"2026-09-20T09:00:43.547854Z"}}